DECAYED

STARLINK-4003, 52701 (Decayed)

Orbit data source: Space-Track

STARLINK-4003, 52701 was a payload satellite owned by SpaceX/Seattle (US) in LEO that was launched on Wed, 18 May 2022 UTC via an FALCON 9 launch vehicle from the Air Force Eastern Test Range (AFETR). Payload-class satellites include a variety of spacecraft equipped with specific instruments for various scientific and technological missions. These include communications satellites like Starlink; space stations such as the ISS; scientific satellites like the Hubble; Earth observation satellites from companies like Planet Labs, Umbra, and HawkEye 360; GPS; miniature CubeSats for education and research; and military/defense satellites.

Not visible in the next 10 days
Identifier
52701, 2022-053AX
Orbit
Decayed
Country
Flag of USUS
Related business
Manufacturer
SpaceX/Seattle
Mission
Decayed Commercial Communications
Bus & Motor
STARLINK, Unknown motor
Mass
297 kg wet, ~275 kg dry
Launch date (UTC)
2022-05-18 (4 years ago)
Launch vehicle
FALCON 9
Launch site
Air Force Eastern Test Range (AFETR)
Object type
Payload
Rocket body
Debris
Shape & HBR
Box + 1 Pan, 10.1 m
Radar Cross Section
13.562 m², Large (>1 m²)

Expand to show TLE details & history
Last TLE update: 1 year ago

TLE from 1 year ago
0 STARLINK-4003
1 52701U 22053AX  25008.17034898  .17629647  12607-4  22108-3 0  9990
2 52701  53.1944 219.9646 0004975 268.3420 197.1363 16.49364558146989
Epoch: 2025-01-08T04:05Z
TLE epoch observation values (Epoch: 2025-01-08T04:05:18.151Z)
Latitude
50.66294°
Longitude
165.48141°
Altitude
150.032 km
Speed
7.821 km/s
True Right ascension
22h 19m 05s
True Declination
50° 28' 43"
Sunlit
Object was in daylight at epoch
Visualization orbit readout
Latitude
Unknown
Longitude
Unknown
Altitude
Unknown
Speed
Unknown
Apparent Right ascension
Unknown
Apparent Declination
Unknown
Sunlit
N/A
Visualization observer readout
Local Sidereal Time
21:32:12
Azimuth
Unknown
Elevation
Unknown
Doppler factor
Unknown
Orbital elements
Apogee altitude
144.516 km
Perigee altitude
138.029 km
Semi-major axis
6,519.41 km
Eccentricity
0.0005
Inclination
53.1944°
RAAN
219.9646°
Arg. of periapsis
268.342°
True anomaly
197.11951°
Mean anomaly
197.1363°
Eccentric anomaly
197.12791°
Mean motion
4.12317 °/min
Orbital period
87.31 mins
BSTAR
0.00022108
Loading maneuver chart data...
Computing Atmospheric mass density...
Loading historical data...
Loading historical data...
Loading historical data...
Loading historical data...
Loading historical data...
Loading historical data...
Loading historical data...

Documentation

Showing up to 5 results
|